Time,TemperatureF,DewpointF,PressureIn,WindDirection,WindDirectionDegrees,WindSpeedMPH,WindSpeedGustMPH,Humidity,HourlyPrecipIn,Conditions,Clouds,dailyrainin,SoftwareType,DateUTC
2013-03-19 00:01:00,29.0,28.0,30.23,East,80,0.0,0.0,97,0.00,,,0.12,,2013-03-19 07:01:00,
2013-03-19 00:12:00,29.0,28.0,30.23,East,80,0.0,0.0,97,0.00,,,0.12,,2013-03-19 07:12:00,
2013-03-19 00:21:00,29.0,28.0,30.22,East,81,0.0,0.0,97,0.00,,,0.12,,2013-03-19 07:21:00,
2013-03-19 00:32:00,29.0,28.0,30.22,East,80,0.0,0.0,97,0.00,,,0.12,,2013-03-19 07:32:00,
2013-03-19 00:42:00,29.0,28.0,30.22,East,80,0.0,0.0,97,0.00,,,0.12,,2013-03-19 07:42:00,
2013-03-19 00:52:00,28.0,27.0,30.21,East,80,0.0,0.0,97,0.00,,,0.12,,2013-03-19 07:52:00,
2013-03-19 01:02:00,28.0,28.0,30.20,East,80,0.0,0.0,98,0.00,,,0.12,,2013-03-19 08:02:00,
2013-03-19 01:12:00,28.0,28.0,30.20,East,80,0.0,0.0,98,0.00,,,0.12,,2013-03-19 08:12:00,
2013-03-19 01:21:00,28.0,28.0,30.20,East,80,0.0,0.0,98,0.00,,,0.12,,2013-03-19 08:21:00,
2013-03-19 01:32:00,28.0,28.0,30.20,East,80,0.0,0.0,98,0.00,,,0.12,,2013-03-19 08:32:00,
2013-03-19 01:42:00,28.0,28.0,30.20,East,80,0.0,0.0,98,0.00,,,0.12,,2013-03-19 08:42:00,
2013-03-19 01:51:00,28.0,28.0,30.19,East,80,0.0,0.0,98,0.00,,,0.12,,2013-03-19 08:51:00,
2013-03-19 02:02:00,28.0,28.0,30.18,East,80,0.0,0.0,98,0.00,,,0.12,,2013-03-19 09:02:00,
2013-03-19 02:12:00,28.0,28.0,30.18,East,80,0.0,0.0,98,0.00,,,0.12,,2013-03-19 09:12:00,
2013-03-19 02:22:00,29.0,29.0,30.18,East,80,0.0,0.0,98,0.00,,,0.12,,2013-03-19 09:22:00,
2013-03-19 02:32:00,29.0,29.0,30.17,East,80,0.0,0.0,98,0.00,,,0.12,,2013-03-19 09:32:00,
2013-03-19 02:42:00,29.0,29.0,30.17,East,80,0.0,0.0,98,0.00,,,0.12,,2013-03-19 09:42:00,
2013-03-19 02:52:00,29.0,29.0,30.18,East,80,0.0,0.0,98,0.00,,,0.12,,2013-03-19 09:52:00,
2013-03-19 03:03:00,29.0,29.0,30.17,East,80,0.0,0.0,98,0.00,,,0.12,,2013-03-19 10:03:00,
2013-03-19 03:12:00,29.0,29.0,30.17,East,80,0.0,0.0,98,0.00,,,0.12,,2013-03-19 10:12:00,
2013-03-19 03:22:00,29.0,29.0,30.16,East,79,0.0,0.0,98,0.00,,,0.12,,2013-03-19 10:22:00,
2013-03-19 03:32:00,29.0,29.0,30.16,East,79,0.0,0.0,98,0.00,,,0.12,,2013-03-19 10:32:00,
2013-03-19 03:42:00,29.0,29.0,30.16,East,79,0.0,0.0,98,0.00,,,0.12,,2013-03-19 10:42:00,
2013-03-19 03:52:00,29.0,29.0,30.16,East,79,0.0,0.0,98,0.00,,,0.12,,2013-03-19 10:52:00,
2013-03-19 04:02:00,29.0,29.0,30.15,East,79,0.0,0.0,98,0.00,,,0.12,,2013-03-19 11:02:00,
2013-03-19 04:12:00,29.0,29.0,30.15,East,79,0.0,0.0,98,0.00,,,0.12,,2013-03-19 11:12:00,
2013-03-19 04:22:00,29.0,29.0,30.14,East,80,0.0,0.0,98,0.00,,,0.12,,2013-03-19 11:22:00,
2013-03-19 04:32:00,30.0,29.0,30.14,East,80,0.0,0.0,98,0.00,,,0.12,,2013-03-19 11:32:00,
2013-03-19 04:42:00,30.0,29.0,30.14,East,80,0.0,0.0,98,0.00,,,0.12,,2013-03-19 11:42:00,
2013-03-19 04:52:00,30.0,29.0,30.13,WNW,288,0.0,0.0,98,0.00,,,0.12,,2013-03-19 11:52:00,
2013-03-19 05:02:00,30.0,29.0,30.12,WNW,289,0.0,2.0,98,0.00,,,0.12,,2013-03-19 12:02:00,
2013-03-19 05:12:00,30.0,29.0,30.12,WNW,289,0.0,2.0,98,0.00,,,0.12,,2013-03-19 12:12:00,
2013-03-19 05:22:00,30.0,29.0,30.12,ESE,106,0.0,0.0,98,0.00,,,0.12,,2013-03-19 12:22:00,
2013-03-19 05:32:00,30.0,29.0,30.12,WNW,300,0.0,0.0,98,0.00,,,0.12,,2013-03-19 12:32:00,
2013-03-19 05:42:00,30.0,29.0,30.12,WNW,300,0.0,0.0,98,0.00,,,0.12,,2013-03-19 12:42:00,
2013-03-19 05:51:00,30.0,29.0,30.11,East,96,0.0,2.0,98,0.00,,,0.12,,2013-03-19 12:51:00,
2013-03-19 06:02:00,30.0,29.0,30.11,WNW,293,0.0,0.0,98,0.00,,,0.12,,2013-03-19 13:02:00,
2013-03-19 06:12:00,30.0,29.0,30.11,WNW,293,0.0,0.0,98,0.00,,,0.12,,2013-03-19 13:12:00,
2013-03-19 06:22:00,30.0,29.0,30.10,East,86,0.0,0.0,98,0.00,,,0.12,,2013-03-19 13:22:00,
2013-03-19 06:32:00,30.0,29.0,30.10,NW,324,0.0,0.0,97,0.00,,,0.12,,2013-03-19 13:32:00,
2013-03-19 06:42:00,30.0,29.0,30.10,NW,324,0.0,0.0,97,0.00,,,0.12,,2013-03-19 13:42:00,
2013-03-19 06:52:00,30.0,29.0,30.10,NW,323,0.0,0.0,97,0.00,,,0.12,,2013-03-19 13:52:00,
2013-03-19 07:02:00,30.0,29.0,30.09,NW,304,0.0,2.0,98,0.00,,,0.12,,2013-03-19 14:02:00,
2013-03-19 07:12:00,30.0,29.0,30.09,NW,304,0.0,2.0,98,0.00,,,0.12,,2013-03-19 14:12:00,
2013-03-19 07:22:00,30.0,29.0,30.09,WNW,297,0.0,3.0,98,0.00,,,0.12,,2013-03-19 14:22:00,
2013-03-19 07:32:00,30.0,29.0,30.09,NW,310,0.0,0.0,97,0.00,,,0.12,,2013-03-19 14:32:00,
2013-03-19 07:42:00,30.0,29.0,30.09,NW,310,0.0,0.0,97,0.00,,,0.12,,2013-03-19 14:42:00,
2013-03-19 07:52:00,30.0,29.0,30.08,East,83,0.0,0.0,98,0.00,,,0.12,,2013-03-19 14:52:00,
2013-03-19 08:02:00,30.0,29.0,30.08,East,83,0.0,0.0,98,0.00,,,0.12,,2013-03-19 15:02:00,
2013-03-19 08:12:00,30.0,29.0,30.08,East,83,0.0,0.0,98,0.00,,,0.12,,2013-03-19 15:12:00,
2013-03-19 08:22:00,31.0,31.0,30.07,WSW,255,0.0,0.0,98,0.00,,,0.12,,2013-03-19 15:22:00,
2013-03-19 08:33:00,31.0,30.0,30.07,WNW,286,0.0,0.0,97,0.00,,,0.12,,2013-03-19 15:33:00,
2013-03-19 08:43:00,31.0,30.0,30.07,WNW,286,0.0,0.0,97,0.00,,,0.12,,2013-03-19 15:43:00,
2013-03-19 08:52:00,31.0,30.0,30.07,WNW,285,0.0,0.0,97,0.00,,,0.12,,2013-03-19 15:52:00,
2013-03-19 09:03:00,31.0,30.0,30.06,WNW,285,0.0,0.0,97,0.00,,,0.12,,2013-03-19 16:03:00,
2013-03-19 09:13:00,31.0,30.0,30.06,WNW,285,0.0,0.0,97,0.00,,,0.12,,2013-03-19 16:13:00,
2013-03-19 09:23:00,32.0,31.0,30.07,WNW,285,0.0,0.0,97,0.00,,,0.12,,2013-03-19 16:23:00,
2013-03-19 09:33:00,33.0,32.0,30.06,North,11,0.0,0.0,98,0.00,,,0.11,,2013-03-19 16:33:00,
2013-03-19 09:43:00,33.0,32.0,30.06,North,11,0.0,0.0,98,0.00,,,0.11,,2013-03-19 16:43:00,
2013-03-19 09:53:00,34.0,33.0,30.06,NW,314,0.0,0.0,97,0.00,,,0.11,,2013-03-19 16:53:00,
2013-03-19 10:02:00,35.0,34.0,30.06,WNW,295,0.0,0.0,95,0.00,,,0.11,,2013-03-19 17:02:00,
2013-03-19 10:13:00,35.0,34.0,30.06,WNW,295,0.0,0.0,95,0.00,,,0.11,,2013-03-19 17:13:00,
2013-03-19 10:23:00,36.0,34.0,30.05,WNW,284,0.0,0.0,94,0.00,,,0.11,,2013-03-19 17:23:00,
2013-03-19 10:34:00,36.0,33.0,30.05,WNW,286,0.0,0.0,90,0.00,,,0.08,,2013-03-19 17:34:00,
2013-03-19 10:43:00,36.0,33.0,30.05,WNW,286,0.0,0.0,90,0.00,,,0.08,,2013-03-19 17:43:00,
2013-03-19 10:52:00,38.0,35.0,30.05,SW,224,0.0,0.0,90,0.00,,,0.08,,2013-03-19 17:52:00,
2013-03-19 11:02:00,40.0,36.0,30.04,WSW,257,0.0,0.0,85,0.00,,,0.08,,2013-03-19 18:02:00,
2013-03-19 11:13:00,40.0,36.0,30.04,WSW,257,0.0,0.0,85,0.00,,,0.08,,2013-03-19 18:13:00,
2013-03-19 11:23:00,41.0,36.0,30.04,WSW,237,0.0,0.0,83,0.00,,,0.08,,2013-03-19 18:23:00,
2013-03-19 11:33:00,41.0,36.0,30.03,SW,227,0.0,0.0,81,0.00,,,0.04,,2013-03-19 18:33:00,
2013-03-19 11:42:00,41.0,36.0,30.03,SW,227,0.0,0.0,81,0.00,,,0.04,,2013-03-19 18:42:00,
2013-03-19 11:52:00,42.0,36.0,30.03,North,356,0.0,0.0,80,0.00,,,0.04,,2013-03-19 18:52:00,
2013-03-19 12:02:00,43.0,37.0,30.03,SSW,213,0.0,0.0,78,0.00,,,0.04,,2013-03-19 19:02:00,
2013-03-19 12:12:00,43.0,37.0,30.03,SSW,213,0.0,0.0,78,0.00,,,0.04,,2013-03-19 19:12:00,
2013-03-19 12:22:00,44.0,37.0,30.02,North,6,0.0,0.0,76,0.00,,,0.04,,2013-03-19 19:22:00,
2013-03-19 12:32:00,45.0,37.0,30.01,SW,221,0.0,0.0,72,0.00,,,0.04,,2013-03-19 19:32:00,
2013-03-19 12:42:00,45.0,37.0,30.01,SW,221,0.0,0.0,72,0.00,,,0.04,,2013-03-19 19:42:00,
2013-03-19 12:52:00,45.0,37.0,30.00,WSW,248,0.0,2.0,74,0.00,,,0.04,,2013-03-19 19:52:00,
2013-03-19 13:02:00,46.0,37.0,30.00,SW,233,0.0,0.0,71,0.00,,,0.04,,2013-03-19 20:02:00,
2013-03-19 13:12:00,46.0,37.0,30.00,SW,233,0.0,0.0,71,0.00,,,0.04,,2013-03-19 20:12:00,
2013-03-19 13:22:00,45.0,36.0,29.99,SW,219,0.0,4.0,71,0.00,,,0.04,,2013-03-19 20:22:00,
2013-03-19 13:32:00,46.0,37.0,29.98,South,172,0.0,0.0,70,0.00,,,0.00,,2013-03-19 20:32:00,
2013-03-19 13:42:00,46.0,37.0,29.98,South,172,0.0,0.0,70,0.00,,,0.00,,2013-03-19 20:42:00,
2013-03-19 13:52:00,46.0,36.0,29.98,West,264,0.0,0.0,69,0.00,,,0.00,,2013-03-19 20:52:00,
2013-03-19 14:02:00,47.0,38.0,29.96,WSW,257,0.0,0.0,71,0.00,,,0.00,,2013-03-19 21:02:00,
2013-03-19 14:11:00,47.0,38.0,29.96,WSW,257,0.0,0.0,71,0.00,,,0.00,,2013-03-19 21:11:00,
2013-03-19 14:22:00,47.0,37.0,29.96,SW,215,0.0,2.0,69,0.00,,,0.00,,2013-03-19 21:22:00,
2013-03-19 14:33:00,47.0,39.0,29.96,SSW,213,0.0,4.0,73,0.00,,,0.00,,2013-03-19 21:33:00,
2013-03-19 14:42:00,47.0,39.0,29.96,SSW,213,0.0,4.0,73,0.00,,,0.00,,2013-03-19 21:42:00,
2013-03-19 14:52:00,46.0,40.0,29.95,East,81,0.0,1.0,80,0.00,,,0.00,,2013-03-19 21:52:00,
2013-03-19 15:02:00,45.0,41.0,29.94,East,81,0.0,0.0,87,0.00,,,0.00,,2013-03-19 22:02:00,
2013-03-19 15:12:00,45.0,41.0,29.94,East,81,0.0,0.0,87,0.00,,,0.00,,2013-03-19 22:12:00,
2013-03-19 15:22:00,45.0,42.0,29.93,East,81,0.0,0.0,90,0.01,,,0.01,,2013-03-19 22:22:00,
2013-03-19 15:33:00,45.0,42.0,29.93,WSW,254,0.0,0.0,90,0.01,,,0.01,,2013-03-19 22:33:00,
2013-03-19 15:43:00,45.0,42.0,29.93,WSW,254,0.0,0.0,90,0.01,,,0.01,,2013-03-19 22:43:00,
2013-03-19 15:52:00,44.0,42.0,29.92,ENE,63,0.0,0.0,91,0.02,,,0.02,,2013-03-19 22:52:00,
2013-03-19 16:02:00,44.0,42.0,29.93,ENE,63,0.0,0.0,91,0.03,,,0.03,,2013-03-19 23:02:00,
2013-03-19 16:12:00,44.0,42.0,29.93,ENE,63,0.0,0.0,91,0.03,,,0.03,,2013-03-19 23:12:00,
2013-03-19 16:21:00,44.0,42.0,29.91,East,96,0.0,0.0,94,0.02,,,0.03,,2013-03-19 23:21:00,
2013-03-19 16:32:00,45.0,43.0,29.90,SW,233,0.0,0.0,93,0.03,,,0.04,,2013-03-19 23:32:00,
2013-03-19 16:42:00,45.0,43.0,29.90,SW,233,0.0,0.0,93,0.03,,,0.04,,2013-03-19 23:42:00,
2013-03-19 16:51:00,45.0,43.0,29.90,SW,233,0.0,0.0,94,0.03,,,0.05,,2013-03-19 23:51:00,
2013-03-19 17:02:00,44.0,43.0,29.89,SW,233,0.0,0.0,96,0.04,,,0.07,,2013-03-20 00:02:00,
2013-03-19 17:12:00,44.0,43.0,29.89,SW,233,0.0,0.0,96,0.04,,,0.07,,2013-03-20 00:12:00,
2013-03-19 17:22:00,44.0,43.0,29.88,SW,233,0.0,0.0,96,0.04,,,0.08,,2013-03-20 00:22:00,
2013-03-19 17:32:00,44.0,43.0,29.87,SW,233,0.0,0.0,96,0.04,,,0.08,,2013-03-20 00:32:00,
2013-03-19 17:42:00,44.0,43.0,29.87,SW,233,0.0,0.0,96,0.04,,,0.08,,2013-03-20 00:42:00,
2013-03-19 17:52:00,44.0,43.0,29.86,SW,233,0.0,0.0,96,0.04,,,0.09,,2013-03-20 00:52:00,
2013-03-19 18:02:00,44.0,43.0,29.85,SW,233,0.0,0.0,96,0.02,,,0.09,,2013-03-20 01:02:00,
2013-03-19 18:12:00,44.0,43.0,29.85,SW,233,0.0,0.0,96,0.02,,,0.09,,2013-03-20 01:12:00,
2013-03-19 18:22:00,44.0,43.0,29.84,NW,307,0.0,0.0,96,0.04,,,0.12,,2013-03-20 01:22:00,
2013-03-19 18:32:00,43.0,42.0,29.83,North,352,0.0,0.0,96,0.06,,,0.14,,2013-03-20 01:32:00,
2013-03-19 18:42:00,43.0,42.0,29.83,North,352,0.0,0.0,96,0.06,,,0.14,,2013-03-20 01:42:00,
2013-03-19 18:52:00,43.0,42.0,29.82,NNW,330,0.0,0.0,97,0.07,,,0.16,,2013-03-20 01:52:00,
2013-03-19 19:02:00,43.0,42.0,29.80,North,352,0.0,0.0,97,0.09,,,0.18,,2013-03-20 02:02:00,
2013-03-19 19:11:00,43.0,42.0,29.80,North,352,0.0,0.0,97,0.09,,,0.18,,2013-03-20 02:11:00,
2013-03-19 19:21:00,43.0,42.0,29.78,ENE,66,0.0,0.0,97,0.07,,,0.19,,2013-03-20 02:21:00,
2013-03-19 19:32:00,43.0,42.0,29.77,NE,39,0.0,0.0,98,0.08,,,0.22,,2013-03-20 02:32:00,
2013-03-19 19:42:00,43.0,42.0,29.77,NE,39,0.0,0.0,98,0.08,,,0.22,,2013-03-20 02:42:00,
2013-03-19 19:52:00,43.0,42.0,29.76,NE,37,0.0,0.0,98,0.06,,,0.22,,2013-03-20 02:52:00,
2013-03-19 20:01:00,43.0,42.0,29.75,WNW,302,0.0,0.0,98,0.04,,,0.22,,2013-03-20 03:01:00,
2013-03-19 20:12:00,43.0,42.0,29.75,WNW,302,0.0,0.0,98,0.03,,,0.22,,2013-03-20 03:12:00,
2013-03-19 20:22:00,43.0,42.0,29.75,WNW,302,0.0,0.0,98,0.03,,,0.22,,2013-03-20 03:22:00,
2013-03-19 20:33:00,43.0,42.0,29.73,North,2,0.0,0.0,98,0.00,,,0.22,,2013-03-20 03:33:00,
2013-03-19 20:42:00,43.0,42.0,29.73,North,2,0.0,0.0,98,0.00,,,0.22,,2013-03-20 03:42:00,
2013-03-19 20:52:00,43.0,42.0,29.72,North,2,0.0,0.0,98,0.00,,,0.22,,2013-03-20 03:52:00,
2013-03-19 21:02:00,43.0,42.0,29.71,NE,48,0.0,0.0,98,0.00,,,0.22,,2013-03-20 04:02:00,
2013-03-19 21:12:00,43.0,42.0,29.71,NE,48,0.0,0.0,98,0.00,,,0.22,,2013-03-20 04:12:00,
2013-03-19 21:22:00,43.0,42.0,29.71,NE,48,0.0,0.0,98,0.00,,,0.22,,2013-03-20 04:22:00,
2013-03-19 21:32:00,42.0,41.0,29.70,NE,48,0.0,0.0,98,0.00,,,0.22,,2013-03-20 04:32:00,
2013-03-19 21:43:00,42.0,41.0,29.70,NE,48,0.0,0.0,98,0.00,,,0.22,,2013-03-20 04:43:00,
2013-03-19 21:52:00,42.0,41.0,29.70,NE,48,0.0,0.0,98,0.01,,,0.23,,2013-03-20 04:52:00,
2013-03-19 22:02:00,42.0,41.0,29.70,NE,48,0.0,0.0,98,0.01,,,0.23,,2013-03-20 05:02:00,
2013-03-19 22:12:00,42.0,41.0,29.68,NE,48,0.0,0.0,98,0.02,,,0.24,,2013-03-20 05:12:00,
2013-03-19 22:22:00,42.0,41.0,29.68,NE,48,0.0,0.0,98,0.02,,,0.24,,2013-03-20 05:22:00,
2013-03-19 22:32:00,42.0,41.0,29.68,NE,48,0.0,0.0,98,0.03,,,0.25,,2013-03-20 05:32:00,
2013-03-19 22:42:00,42.0,41.0,29.68,NE,48,0.0,0.0,98,0.03,,,0.25,,2013-03-20 05:42:00,
2013-03-19 22:52:00,42.0,41.0,29.67,NE,49,0.0,0.0,98,0.05,,,0.28,,2013-03-20 05:52:00,
2013-03-19 23:02:00,42.0,41.0,29.65,NE,49,0.0,0.0,98,0.07,,,0.30,,2013-03-20 06:02:00,
2013-03-19 23:12:00,42.0,41.0,29.65,NE,49,0.0,0.0,98,0.07,,,0.30,,2013-03-20 06:12:00,
2013-03-19 23:21:00,42.0,41.0,29.65,WSW,245,0.0,1.0,98,0.08,,,0.32,,2013-03-20 06:21:00,
2013-03-19 23:32:00,42.0,41.0,29.65,WSW,245,0.0,1.0,98,0.08,,,0.32,,2013-03-20 06:32:00,
2013-03-19 23:42:00,42.0,41.0,29.65,WSW,245,0.0,1.0,98,0.08,,,0.32,,2013-03-20 06:42:00,
2013-03-19 23:52:00,42.0,41.0,29.65,WSW,245,0.0,1.0,98,0.08,,,0.32,,2013-03-20 06:52:00,